Date,Time,Air Temperature,Dewpoint,Windchill,Heat Index,RH,3m Max Wind Speed,3m Mean Wind Speed,3m Wind Direction,Rain,Solar Radiation
,,F,F,F,F,%,MPH,MPH,deg,in,MJ/m^2
2024-04-18,08:35,60.3,20.9,60.3,60.3,21.7,2.5,1.5,233.4,0.0,0.1283419
2024-04-18,08:40,60.1,20.8,60.1,60.1,21.8,2.7,1.4,253.3,0.0,0.134239
2024-04-18,08:45,60.8,20.4,60.8,60.8,20.8,1.7,0.6,250.5,0.0,0.1402728
2024-04-18,08:50,61.2,20.4,61.2,61.2,20.6,2.3,1.1,253.1,0.0,0.1464675
2024-04-18,08:55,61.3,19.9,61.3,61.3,20.0,1.6,0.9,274.3,0.0,0.152332
2024-04-18,09:00,62.3,23.4,62.3,62.3,22.4,2.6,1.2,115.3,0.0,0.1582696
2024-04-18,09:05,63.3,20.8,63.3,63.3,19.4,3.6,1.2,129.4,0.0,0.1638899
2024-04-18,09:10,63.3,24.2,63.3,63.3,22.5,3.6,2.3,104,0.0,0.1698732
2024-04-18,09:15,64.3,26.4,64.3,64.3,23.7,2.8,1.9,109.6,0.0,0.1754585
2024-04-18,09:20,65.1,19,65.1,65.1,16.9,2.8,1.3,114.2,0.0,0.1810884
2024-04-18,09:25,65.3,20,65.3,65.3,17.5,2.8,1.2,247.5,0.0,0.1861774
2024-04-18,09:30,66.3,18.3,66.3,66.3,15.8,2.9,1.3,158.1,0.0,0.1921458
2024-04-18,09:35,66.9,19.8,66.9,66.9,16.4,3.5,1.8,100.4,0.0,0.1979957
2024-04-18,09:40,66.9,18.9,66.9,66.9,15.8,2.4,1.2,351.6,0.0,0.2033768
2024-04-18,09:45,67.7,19,67.7,67.7,15.4,3.9,1.9,153.5,0.0,0.2086252
2024-04-18,09:50,67.4,19.8,67.4,67.4,16.1,4,1.9,266.4,0.0,0.2137745
2024-04-18,09:55,68.5,18.4,68.5,68.5,14.6,3.1,1.7,130.2,0.0,0.2193626
2024-04-18,10:00,69.2,18.6,69.2,69.2,14.4,3.1,1.5,203.3,0.0,0.2242289
2024-04-18,10:05,70.1,18.8,70.1,70.1,14.1,4.1,1.7,104,0.0,0.2294562
2024-04-18,10:10,69.7,21.2,69.7,69.7,15.8,5.2,3.5,138.7,0.0,0.2342008
2024-04-18,10:15,70.3,18.6,70.3,70.3,13.8,5.6,3.2,133.4,0.0,0.2389766
2024-04-18,10:20,70.6,19.1,70.6,70.6,14.0,4.7,2.8,117.9,0.0,0.2439038
2024-04-18,10:25,71.2,24.8,71.2,71.2,17.5,5.3,1.8,94.4,0.0,0.2486175
2024-04-18,10:30,72.6,20.5,72.6,72.6,13.9,4,2.3,139.9,0.0,0.2531872
2024-04-18,10:35,73.1,20.4,73.1,73.1,13.6,4.7,1.4,252,0.0,0.2575544
2024-04-18,10:40,73.5,25.8,73.5,73.5,16.8,3.6,1.4,148.7,0.0,0.2627928
2024-04-18,10:45,74.2,21.8,74.2,74.2,14.0,3.4,1.1,120.2,0.0,0.2672115
2024-04-18,10:50,74.6,26,74.6,74.6,16.4,5,1.9,99.6,0.0,0.271826
2024-04-18,10:55,74.9,20.1,74.9,74.9,12.7,5.7,2.7,150.7,0.0,0.2753375
2024-04-18,11:00,75.5,20.1,75.5,75.5,12.4,3.4,1.3,178.2,0.0,0.2785955
2024-04-18,11:05,76,22.1,76.0,76,13.3,3.6,1.2,56.9,0.0,0.283866
2024-04-18,11:10,77.7,17.5,77.7,77.7,10.3,4.4,2,197.1,0.0,0.2876363
2024-04-18,11:15,77.5,17.1,77.5,77.5,10.2,4.5,2.3,243.6,0.0,0.2906522
2024-04-18,11:20,77.4,16.7,77.4,77.4,10.1,5.6,3.7,274.6,0.0,0.2938133
2024-04-18,11:25,77.3,15.7,77.3,77.3,9.7,6.5,3.9,277.9,0.0,0.2963746
2024-04-18,11:30,77.5,20,77.5,77.5,11.6,5,3.3,24.6,0.0,0.2981984
2024-04-18,11:35,77.3,19.2,77.3,77.3,11.2,8.1,5,69.1,0.0,0.3020097
2024-04-18,11:40,78,32,78.0,78,18.7,5.6,3,100.6,0.0,0.3040991
2024-04-18,11:45,78.5,17,78.5,78.5,9.8,5.9,2.4,39.9,0.0,0.3073886
2024-04-18,11:50,79.9,14.8,79.9,79.9,8.5,6.1,2.9,147.1,0.0,0.3110067
2024-04-18,11:55,81.2,20.5,81.2,81.2,10.5,10,4.7,275.1,0.0,0.3134196
2024-04-18,12:00,80.5,12.7,80.5,80.5,7.6,10,5.4,272,0.0,0.3140031
2024-04-18,12:05,80.4,11.6,80.4,80.4,7.3,12.8,6.5,260,0.0,0.3175479
2024-04-18,12:10,81,14.1,81.0,81,8.0,7,3,246.5,0.0,0.3185383
2024-04-18,12:15,82,13.9,82.0,82,7.7,13.5,5.3,295.4,0.0,0.3205955
2024-04-18,12:20,82.4,12.5,82.4,82.4,7.1,13.4,7.6,285.3,0.0,0.3227254
2024-04-18,12:25,81.1,11.7,81.1,81.1,7.2,11.8,7.3,270.8,0.0,0.3244635
2024-04-18,12:30,82.3,10.8,82.3,82.3,6.6,11.1,5.6,261.3,0.0,0.3258907
2024-04-18,12:35,82.3,10.3,82.3,82.3,6.5,14.8,9.6,282.1,0.0,0.3269151
2024-04-18,12:40,82.3,10.7,82.3,82.3,6.6,13.7,6.6,272.7,0.0,0.326259
2024-04-18,12:45,81.8,12.3,81.8,81.8,7.2,13.7,8.2,282.8,0.0,0.3176377
2024-04-18,12:50,81.7,10.3,81.7,81.7,6.6,10.6,6.6,250.6,0.0,0.3312479
2024-04-18,12:55,81.9,9.4,81.9,81.9,6.3,11.6,5.8,263,0.0,0.3204473
2024-04-18,13:00,82.9,12.6,82.9,82.9,7.0,12.5,6.3,281.6,0.0,0.3243837
2024-04-18,13:05,82.5,11.4,82.5,82.5,6.7,15,9.1,249.1,0.0,0.2942769
2024-04-18,13:10,83.2,9.2,83.2,83.2,6.0,13.7,9.2,265.4,0.0,0.3298703
2024-04-18,13:15,82.2,9.6,82.2,82.2,6.3,10.5,6.4,233,0.0,0.336738
2024-04-18,13:20,83,10.1,83.0,83,6.3,14.6,10.8,248.5,0.0,0.3334341
2024-04-18,13:25,82.8,10.1,82.8,82.8,6.3,14.3,8.6,263.8,0.0,0.3324831
2024-04-18,13:30,82.9,8.3,82.9,82.9,5.8,10.5,5.4,292,0.0,0.3320206
2024-04-18,13:35,82.8,10.3,82.8,82.8,6.4,15.3,7.4,271,0.0,0.3299347
2024-04-18,13:40,83.7,14,83.7,83.7,7.3,11.9,5.2,284.2,0.0,0.3276041
2024-04-18,13:45,83.7,11.1,83.7,83.7,6.4,9.5,6,208.3,0.0,0.3262084
2024-04-18,13:50,84.6,10.2,84.6,84.6,6,12.5,7.1,216.5,0.0,0.3249983
2024-04-18,13:55,84.1,7.8,84.1,84.1,5.5,13.9,8.6,242.6,0.0,0.3246761
2024-04-18,14:00,83.7,10.3,83.7,83.7,6.2,13.4,7.6,276.2,0.0,0.3223979
2024-04-18,14:05,83.8,9.9,83.8,83.8,6.1,9.8,5.4,307.6,0.0,0.3198079
2024-04-18,14:10,85,14.8,85.0,85,7.2,10.7,5.9,243.5,0.0,0.3181427
2024-04-18,14:15,84.5,8.2,84.5,84.5,5.5,15,8.1,223.6,0.0,0.3166686
2024-04-18,14:20,84.5,10,84.5,84.5,6.0,13.8,7.5,229.3,0.0,0.3128816
2024-04-18,14:25,84.3,9.4,84.3,84.3,5.8,12,6.4,243.7,0.0,0.3101186
2024-04-18,14:30,84.9,9.6,84.9,84.9,5.8,15.8,8.2,282.4,0.0,0.3073614
2024-04-18,14:35,84.5,13.2,84.5,84.5,6.8,15.7,10.4,260.7,0.0,0.305262
2024-04-18,14:40,85,9.9,85.0,85,5.8,9.1,6,270.9,0.0,0.3035175
2024-04-18,14:45,85.2,10.7,85.2,85.2,6.0,11.9,7.1,285.2,0.0,0.282751
2024-04-18,14:50,85,11,85.0,85,6.1,11.3,7.1,247.2,0.0,0.2540428
2024-04-18,14:55,84.9,10.7,84.9,84.9,6.1,10.1,7.2,231.3,0.0,0.273911
2024-04-18,15:00,85.4,13.4,85.4,85.4,6.7,11.8,5.6,205.6,0.0,0.2954183
2024-04-18,15:05,86.3,10.8,86.3,86.3,5.8,7.3,4.6,265.9,0.0,0.2475362
2024-04-18,15:10,86.1,12.9,86.1,86.1,6.4,8.1,4.7,248.8,0.0,0.2842253
2024-04-18,15:15,85.8,11.5,85.8,85.8,6.1,13.3,9.5,239.9,0.0,0.2913345
2024-04-18,15:20,86.2,11.5,86.2,86.2,6.0,14.8,9.3,261.3,0.0,0.2785788
2024-04-18,15:25,85.8,8.9,85.8,85.8,5.4,11.8,7,251.6,0.0,0.2272524
2024-04-18,15:30,85.3,7.6,85.3,85.3,5.2,13.3,7.3,287.4,0.0,0.2591541
2024-04-18,15:35,85.4,7.8,85.4,85.4,5.2,10.6,6.1,310.2,0.0,0.2063402
2024-04-18,15:40,85.7,8.7,85.7,85.7,5.4,11.6,6.7,263.1,0.0,0.1919993
2024-04-18,15:45,86.1,8.8,86.1,86.1,5.4,11.6,7.3,256.3,0.0,0.2626402
2024-04-18,15:50,85.6,7.4,85.6,85.6,5.1,13.1,9.7,253.1,0.0,0.2344731
2024-04-18,15:55,85.5,9,85.5,85.5,5.5,13.7,9.2,236.1,0.0,0.1436945
2024-04-18,16:00,85.1,8,85.1,85.1,5.4,13.9,9.3,240.3,0.0,0.1803825
2024-04-18,16:05,85.3,8.4,85.3,85.3,5.4,12.1,7.1,290.6,0.0,0.1635868
2024-04-18,16:10,85.1,11.3,85.1,85.1,6.2,7.3,4.3,263.4,0.0,0.1152199
2024-04-18,16:15,84.9,8.6,84.9,84.9,5.5,11.5,7.4,271.4,0.0,0.1125517
2024-04-18,16:20,85,6.9,85.0,85,5.1,10.8,6.3,275.9,0.0,0.1294798
2024-04-18,16:25,85.8,6.6,85.8,85.8,4.9,11.4,6.9,258.2,0.0,0.132595
2024-04-18,16:30,85.6,4.8,85.6,85.6,4.5,12,6.9,257.3,0.0,0.1859176
2024-04-18,16:35,86.2,6.3,86.2,86.2,4.8,13.1,8.6,255.4,0.0,0.2022082
2024-04-18,16:40,85.7,9.6,85.7,85.7,5.6,9.3,6.8,236.7,0.0,0.1235955
2024-04-18,16:45,85.4,8.3,85.4,85.4,5.4,10.5,7.3,257.8,0.0,0.1016689
2024-04-18,16:50,85.3,9,85.3,85.3,5.5,11.2,6.9,270.2,0.0,0.1310959
2024-04-18,16:55,85.2,4.9,85.2,85.2,4.6,11.5,8,279.8,0.0,0.1076962
2024-04-18,17:00,84.8,8.3,84.8,84.8,5.5,8.5,5.6,286.9,0.0,0.07741924
2024-04-18,17:05,84.4,5.5,84.4,84.4,4.9,10.7,6.8,269.3,0.0,0.0656988
2024-04-18,17:10,84.8,6.4,84.8,84.8,5.0,9.5,6.7,268.6,0.0,0.1369745
2024-04-18,17:15,86.3,9.5,86.3,86.3,5.5,9.3,5.9,248.8,0.0,0.1978385
2024-04-18,17:20,86.1,6.3,86.1,86.1,4.8,12.1,8.1,284.4,0.0,0.1772428
2024-04-18,17:25,85.8,5.7,85.8,85.8,4.7,10.5,7.1,272.8,0.0,0.1393546
2024-04-18,17:30,85.3,6.8,85.3,85.3,5.0,14.8,8.1,279.9,0.0,0.1080365
2024-04-18,17:35,85.3,9.4,85.3,85.3,5.7,11.5,7.2,266.7,0.0,0.1408832
2024-04-18,17:40,86.3,7.4,86.3,86.3,5.0,6.9,4.4,272.6,0.0,0.1479925
2024-04-18,17:45,86.9,10.1,86.9,86.9,5.5,8.9,4.3,258,0.0,0.1312842
2024-04-18,17:50,85.2,7.6,85.2,85.2,5.2,11.4,7.2,280.9,0.0,0.05864579
2024-04-18,17:55,85,7.3,85.0,85,5.2,7.7,5.5,286,0.0,0.06833524
2024-04-18,18:00,85.2,7.7,85.2,85.2,5.3,8.6,5.7,291.3,0.0,0.08897457
2024-04-18,18:05,85.1,8,85.1,85.1,5.4,7.2,4.4,273,0.0,0.06794795
2024-04-18,18:10,84.9,8.4,84.9,84.9,5.5,10.1,4.7,280.8,0.0,0.04993237
2024-04-18,18:15,84.6,9.1,84.6,84.6,5.7,6.8,4.2,284.8,0.0,0.05287015
2024-04-18,18:20,84.5,9.6,84.5,84.5,5.9,8,4.1,263,0.0,0.04803934
2024-04-18,18:25,84.1,8.6,84.1,84.1,5.7,9.2,6.5,273.5,0.0,0.03546587
2024-04-18,18:30,83.8,9.5,83.8,83.8,5.9,5.9,3.4,290.8,0.0,0.03100368
2024-04-18,18:35,83.9,8.7,83.9,83.9,5.7,6.9,3.9,293.4,0.0,0.03671382
2024-04-18,18:40,83.8,8.9,83.8,83.8,5.8,7,4.1,280.4,0.0,0.02970021
2024-04-18,18:45,83.4,10.5,83.4,83.4,6.3,4.1,2.6,288.3,0.0,0.02560945
2024-04-18,18:50,83.4,10.7,83.4,83.4,6.4,2.8,1.7,288.8,0.0,0.0343704
2024-04-18,18:55,83.3,9.4,83.3,83.3,6.0,3.9,1.6,297.4,0.0,0.027246
2024-04-18,19:00,83.4,12.3,83.4,83.4,6.8,3,1.7,294.4,0.0,0.03342146
2024-04-18,19:05,82.9,12,82.9,82.9,6.8,3.6,2.5,267.9,0.0,0.02118969
2024-04-18,19:10,82.6,11,82.6,82.6,6.6,2.2,1.2,292.8,0.0,0.01658701
2024-04-18,19:15,82.1,11.4,82.1,82.1,6.8,2.2,1.1,288.2,0.0,0.011153
2024-04-18,19:20,81.6,11.9,81.6,81.6,7.1,3,1.2,284,0.0,0.008312689
2024-04-18,19:25,81.1,13,81.1,81.1,7.6,1.6,0.8,260.9,0.0,0.00774007
2024-04-18,19:30,80.3,14.5,80.3,80.3,8.3,1.1,0.6,241.3,0.0,0.006447319
2024-04-18,19:35,79.1,13.6,79.1,79.1,8.3,0.9,0.2,241.2,0.0,0.00229782
2024-04-18,19:40,78.5,13.8,78.5,78.5,8.6,1.4,0.6,233.9,0.0,0.0004203
2024-04-18,19:45,77.7,16,77.7,77.7,9.7,0.3,0,233.8,0.0,0.0001151
2024-04-18,19:50,76.7,18,76.7,76.7,10.9,0,0,0,0.0,-0.00004034
2024-04-18,19:55,75.9,17.6,75.9,75.9,11.0,0,0,0,0.0,-0.00017269
2024-04-18,20:00,75.4,18.1,75.4,75.4,11.4,1.2,0.2,248,0.0,-0.00020796
2024-04-18,20:05,74.8,17.3,74.8,74.8,11.3,1.2,0.9,247.1,0.0,-0.00020337
2024-04-18,20:10,74.2,17.6,74.2,74.2,11.6,0.3,0,236.9,0.0,-0.00023181
2024-04-18,20:15,74,18.7,74.0,74,12.3,1.4,0.8,230.9,0.0,-0.00023608
2024-04-18,20:20,73.3,18,73.3,73.3,12.2,0.4,0,221.2,0.0,-0.00028375
2024-04-18,20:25,72.8,18.7,72.8,72.8,12.8,0,0,0,0.0,-0.00025872
2024-04-18,20:30,72.3,18.9,72.3,72.3,13.2,0.4,0,236.9,0.0,-0.00025698
2024-04-18,20:35,71.9,19.8,71.9,71.9,13.8,0,0,0,0.0,-0.00020709
2024-04-18,20:40,71.8,19.2,71.8,71.8,13.6,0,0,0,0.0,-0.00017113
2024-04-18,20:45,71.3,19.3,71.3,71.3,13.8,0,0,0,0.0,-0.00022123
2024-04-18,20:50,71.1,19.4,71.1,71.1,14.0,0,0,0,0.0,-0.00020294
2024-04-18,20:55,70.8,20.4,70.8,70.8,14.7,0.8,0.1,253.7,0.0,-0.00019392
2024-04-18,21:00,71,19.7,71.0,71,14.2,1.1,0.1,238.5,0.0,-0.00012384
2024-04-18,21:05,71.1,20.4,71.1,71.1,14.6,1.6,1.1,236.4,0.0,-0.00011214
2024-04-18,21:10,70.8,19.3,70.8,70.8,14,1.6,1.4,236.1,0.0,-0.00016526
2024-04-18,21:15,70.3,20.6,70.3,70.3,15.2,1.7,1,246.3,0.0,-0.00020514
2024-04-18,21:20,69.7,19.7,69.7,69.7,14.8,1.5,1.1,261.4,0.0,-0.00019476
2024-04-18,21:25,69.6,20.4,69.6,69.6,15.3,1.5,0.7,229.5,0.0,-0.00016173
2024-04-18,21:30,69.2,20.1,69.2,69.2,15.4,0,0,0,0.0,-0.00019363
2024-04-18,21:35,68.8,20,68.8,68.8,15.5,0,0,0,0.0,-0.00017015
2024-04-18,21:40,68.8,20.9,68.8,68.8,16.1,1.1,0.6,151.1,0.0,-0.00015852
2024-04-18,21:45,68.7,22,68.7,68.7,17.0,1.5,0.4,156.1,0.0,-0.00019549
2024-04-18,21:50,68.5,19.6,68.5,68.5,15.4,2.1,1,191.4,0.0,-0.00020043
2024-04-18,21:55,68.9,21.2,68.9,68.9,16.3,2.1,0.5,234.1,0.0,-0.00022499
2024-04-18,22:00,68.3,21.5,68.3,68.3,16.8,1.4,0.8,231.1,0.0,-0.00023669
2024-04-18,22:05,67.9,21.5,67.9,67.9,17.1,1.7,1.3,244.9,0.0,-0.00019406
2024-04-18,22:10,67.6,22.8,67.6,67.6,18.2,1.4,0.7,233.4,0.0,-0.00018238
2024-04-18,22:15,67.2,22.2,67.2,67.2,17.9,1.1,0.3,180,0.0,-0.00018094
2024-04-18,22:20,66.8,23.1,66.8,66.8,18.9,0.9,0.2,189.7,0.0,-0.00019881
2024-04-18,22:25,66.3,22.7,66.3,66.3,18.9,0.7,0.1,152.8,0.0,-0.00019583
2024-04-18,22:30,66.1,23.1,66.1,66.1,19.4,1.1,0.7,221.7,0.0,-0.00018509
2024-04-18,22:35,65.8,24.4,65.8,65.8,20.7,2.1,1.5,252.8,0.0,-0.00019584
2024-04-18,22:40,65.3,24.4,65.3,65.3,21.1,1.1,0.3,252.6,0.0,-0.00026469
2024-04-18,22:45,64.9,24,64.9,64.9,20.9,0,0,0,0.0,-0.00026916
2024-04-18,22:50,64.7,23.5,64.7,64.7,20.7,1.6,0.8,236.5,0.0,-0.00019472
2024-04-18,22:55,64.6,23.5,64.6,64.6,20.8,2,1.5,232,0.0,-0.00015214
2024-04-18,23:00,64.3,23.9,64.3,64.3,21.3,1.2,0.9,233.4,0.0,-0.00015925
2024-04-18,23:05,64.2,24.1,64.2,64.2,21.6,1.1,0.6,211,0.0,-0.00013995
2024-04-18,23:10,64.4,23.5,64.4,64.4,21.0,1.3,0.7,140.8,0.0,-0.00013605
2024-04-18,23:15,64.2,24.7,64.2,64.2,22.2,2,1,152.2,0.0,-0.00016064
2024-04-18,23:20,64.1,24.4,64.1,64.1,21.9,2.2,1.7,183.2,0.0,-0.00012576
2024-04-18,23:25,63.8,23.1,63.8,63.8,20.9,2.2,1.4,185.3,0.0,-0.00013061
2024-04-18,23:30,63.3,23.1,63.3,63.3,21.3,1.2,0.3,166,0.0,-0.00017152
2024-04-18,23:35,63,23.5,63.0,63,21.9,1.6,0.8,193.2,0.0,-0.00013401
2024-04-18,23:40,62.7,23,62.7,62.7,21.7,0.7,0.1,195.3,0.0,-0.00014814
2024-04-18,23:45,62.6,19.5,62.6,62.6,18.8,1.9,0.8,204.3,0.0,-0.00011504
2024-04-18,23:50,63.4,19.5,63.4,63.4,18.3,2.4,1.5,176.2,0.0,-0.00009657999
2024-04-18,23:55,63.2,19,63.2,63.2,18.1,1.4,1,183.2,0.0,-0.00015282
2024-04-19,00:00,63.1,20.4,63.1,63.1,19.2,2.1,0.8,146.8,0.0,-0.00017244
2024-04-19,00:05,63.2,21.2,63.2,63.2,19.8,1.2,0.7,163.4,0.0,-0.00015808
2024-04-19,00:10,63.4,19.7,63.4,63.4,18.5,5.1,2.5,133.6,0.0,-0.00019296
2024-04-19,00:15,64,19.2,64.0,64,17.7,5.5,2.8,171.1,0.0,-0.00018337
2024-04-19,00:20,63.2,20.8,63.2,63.2,19.5,2.6,1.4,211.3,0.0,-0.00022672
2024-04-19,00:25,62.9,20.3,62.9,62.9,19.3,2.2,1.6,183.3,0.0,-0.00019038
2024-04-19,00:30,61.9,21.9,61.9,61.9,21.3,2.7,1.4,265.4,0.0,-0.00022808
2024-04-19,00:35,61.4,21.4,61.4,61.4,21.3,0.7,0.2,291.2,0.0,-0.00024529
2024-04-19,00:40,61.4,20,61.4,61.4,20.1,1.3,0.5,136.1,0.0,-0.00019642
2024-04-19,00:45,61.7,20.6,61.7,61.7,20.4,1.1,0.5,185.1,0.0,-0.00017217
2024-04-19,00:50,61.2,23,61.2,61.2,22.9,2.4,2,249.7,0.0,-0.00016773
2024-04-19,00:55,60.8,20.7,60.8,60.8,21.1,3.9,2.9,276.9,0.0,-0.00019665
2024-04-19,01:00,60.7,21.8,60.7,60.7,22.2,2.3,1,240.2,0.0,-0.00019827
2024-04-19,01:05,60.9,20.1,60.9,60.9,20.5,3.6,2.6,282.8,0.0,-0.00015193
2024-04-19,01:10,60.7,19.5,60.7,60.7,20.1,2,1.1,74.0,0.0,-0.00020261
2024-04-19,01:15,61.3,20.5,61.3,61.3,20.6,2.3,1.3,86.6,0.0,-0.00017705
2024-04-19,01:20,61.1,19.8,61.1,61.1,20.2,2.6,1.8,351.8,0.0,-0.00017645
2024-04-19,01:25,60.5,21.6,60.5,60.5,22.2,2.5,1.6,236.6,0.0,-0.00018863
2024-04-19,01:30,60.3,21,60.3,60.3,21.8,2.7,1.2,158.7,0.0,-0.00019379
2024-04-19,01:35,60.1,22.6,60.1,60.1,23.5,1.1,0.4,253.9,0.0,-0.00020018
2024-04-19,01:40,60,22.1,60.0,60,23.0,2.5,1,133,0.0,-0.00016126
2024-04-19,01:45,60.3,22.9,60.3,60.3,23.6,2.1,1.4,142.9,0.0,-0.00012414
2024-04-19,01:50,60,23.4,60.0,60,24.3,2,1.2,215,0.0,-0.00015812
2024-04-19,01:55,60.2,22.2,60.2,60.2,22.9,1.7,1.2,272.1,0.0,-0.00018398
2024-04-19,02:00,59.4,23.9,59.4,59.4,25.4,2.3,1.2,263.2,0.0,-0.00021313
2024-04-19,02:05,59.8,21.8,59.8,59.8,22.9,3.9,2.6,90.5,0.0,-0.00019416
2024-04-19,02:10,59.8,23,59.8,59.8,24.1,4.2,2.3,277.5,0.0,-0.00014429
2024-04-19,02:15,59.3,23,59.3,59.3,24.5,2.2,1.1,208.8,0.0,-0.00016025
2024-04-19,02:20,59.2,22.6,59.2,59.2,24.2,6.3,3.1,273.8,0.0,-0.00012511
2024-04-19,02:25,59.1,22,59.1,59.1,23.7,3.2,2.1,92.1,0.0,-0.00014832
2024-04-19,02:30,59,22.9,59.0,59,24.7,5.1,2.9,269.9,0.0,-0.00012966
2024-04-19,02:35,58.8,22.5,58.8,58.8,24.4,3.6,1.1,271.6,0.0,-0.0001664
2024-04-19,02:40,58.5,22.3,58.5,58.5,24.5,3.7,1.9,280.8,0.0,-0.00016673
2024-04-19,02:45,59.1,20.4,59.1,59.1,22.2,5.5,2.1,270.6,0.0,-0.00011575
2024-04-19,02:50,59,21.3,59.0,59,23.0,3,1.2,287.5,0.0,-0.00015171
2024-04-19,02:55,58.9,22.2,58.9,58.9,24.1,1.6,0.3,277.1,0.0,-0.00018313
2024-04-19,03:00,58.5,20.1,58.5,58.5,22.4,2.1,1,81.4,0.0,-0.00018472
2024-04-19,03:05,59.7,19.5,59.7,59.7,20.9,2.3,1.7,92.9,0.0,-0.00016473
2024-04-19,03:10,60.5,19.5,60.5,60.5,20.3,2.8,1.9,108.2,0.0,-0.000186
2024-04-19,03:15,60.3,21.3,60.3,60.3,22.1,1,0.3,229.9,0.0,-0.00020722
2024-04-19,03:20,59.3,23,59.3,59.3,24.6,2.3,1.3,272.5,0.0,-0.00020498
2024-04-19,03:25,58.2,23.4,58.2,58.2,25.9,2.2,1,254.5,0.0,-0.00021491
2024-04-19,03:30,58.1,23.1,58.1,58.1,25.7,2,0.7,204.8,0.0,-0.00019783
2024-04-19,03:35,57.4,22.9,57.4,57.4,26.2,1.8,1,211.2,0.0,-0.00019055
2024-04-19,03:40,56.8,23.3,56.8,56.8,27.2,2.2,1.4,250,0.0,-0.00017234
2024-04-19,03:45,56.5,23.5,56.5,56.5,27.8,1.6,0.4,265.7,0.0,-0.00017834
2024-04-19,03:50,56.4,23.9,56.4,56.4,28.3,2.2,1.1,229.2,0.0,-0.00012789
2024-04-19,03:55,56,24.7,56.0,56,29.7,2.1,0.8,248.6,0.0,-0.00012339
2024-04-19,04:00,55.8,25.4,55.8,55.8,30.8,3.6,2.7,268.5,0.0,-0.00008504999
2024-04-19,04:05,56.1,23.8,56.1,56.1,28.4,2.7,1.9,224.8,0.0,-0.00008468
2024-04-19,04:10,56.3,24,56.3,56.3,28.5,0.8,0.2,194.3,0.0,-0.00011805
2024-04-19,04:15,56.2,24.5,56.2,56.2,29.3,1.5,0.3,174.7,0.0,-0.00013249
2024-04-19,04:20,56.1,25.5,56.1,56.1,30.6,1.8,0.7,257.6,0.0,-0.00013134
2024-04-19,04:25,55.7,26,55.7,55.7,31.7,1.6,1,238.9,0.0,-0.00014493
2024-04-19,04:30,55.5,26,55.5,55.5,31.9,1,0.1,202.6,0.0,-0.00017475
2024-04-19,04:35,55.4,25.7,55.4,55.4,31.5,1,0.2,169.6,0.0,-0.00014441
2024-04-19,04:40,55.6,24.8,55.6,55.6,30.3,1.6,0.7,116.8,0.0,-0.00017482
2024-04-19,04:45,56.2,23.2,56.2,56.2,27.7,2.3,1.7,126.9,0.0,-0.00017556
2024-04-19,04:50,56.2,23.2,56.2,56.2,27.7,1.9,0.7,149.5,0.0,-0.00019754
2024-04-19,04:55,56.3,24.3,56.3,56.3,28.8,1.8,0.7,158.1,0.0,-0.00017256
2024-04-19,05:00,55.8,24.4,55.8,55.8,29.5,1,0.6,183.6,0.0,-0.00016715
2024-04-19,05:05,55.7,23.4,55.7,55.7,28.4,1.9,1.1,159.4,0.0,-0.00012262
2024-04-19,05:10,56.1,23.4,56.1,56.1,28.0,1.4,0.5,177.9,0.0,-0.00010619
2024-04-19,05:15,56.8,23.6,56.8,56.8,27.6,3.6,2,173.5,0.0,-0.00009107
2024-04-19,05:20,57.3,24,57.3,57.3,27.5,2.7,1.2,172.9,0.0,-0.00010729
2024-04-19,05:25,57.8,24.4,57.8,57.8,27.5,1.8,0.9,179.4,0.0,-0.00010916
2024-04-19,05:30,57.6,25,57.6,57.6,28.3,2.2,1.3,228.5,0.0,-0.00010222
2024-04-19,05:35,57.5,25,57.5,57.5,28.4,2.5,2,235.1,0.0,-0.00008832
2024-04-19,05:40,57.5,25.6,57.5,57.5,29.1,2.3,1.8,238,0.0,-0.0000969
2024-04-19,05:45,57.5,25.8,57.5,57.5,29.4,3.4,2.6,239,0.0,-0.00006917999
2024-04-19,05:50,58.7,26.5,58.7,58.7,29.0,3.6,2.9,252.3,0.0,-0.00003505
2024-04-19,05:55,58.8,27.4,58.8,58.8,29.9,3.8,3,258.4,0.0,-0.00008094999
2024-04-19,06:00,59.7,27.3,59.7,59.7,28.9,3.4,2.8,236.5,0.0,-0.00004643
2024-04-19,06:05,60.2,27.6,60.2,60.2,28.7,3.4,2.8,253.3,0.0,-0.00006873
2024-04-19,06:10,60.3,26.9,60.3,60.3,27.8,3.2,2.3,301,0.0,-0.00010808
2024-04-19,06:15,60.6,26,60.6,60.6,26.5,4.3,3.1,11.0,0.0,-0.00013806
2024-04-19,06:20,60.8,26.3,60.8,60.8,26.7,2.7,1.8,6.8,0.0,-0.00011752
2024-04-19,06:25,60.8,26.1,60.8,60.8,26.5,2.3,1,59.1,0.0,-0.00005973
2024-04-19,06:30,60.2,27.1,60.2,60.2,28.2,1.7,0.6,343.9,0.0,0.00027257
2024-04-19,06:35,59.6,24.9,59.6,59.6,26.3,1.7,0.7,31.2,0.0,0.00084773
2024-04-19,06:40,59.4,23.5,59.4,59.4,25.0,3.4,2.2,3.6,0.0,0.00129257
2024-04-19,06:45,59.1,23.6,59.1,59.1,25.3,2.6,2,341.5,0.0,0.00261543
2024-04-19,06:50,58.6,24.1,58.6,58.6,26.3,2.1,1.2,312.5,0.0,0.004274969
2024-04-19,06:55,58.7,23,58.7,58.7,25.1,2.3,1.7,1.8,0.0,0.00578039
2024-04-19,07:00,58.7,23.5,58.7,58.7,25.6,1.9,1,19.5,0.0,0.0067279
2024-04-19,07:05,58.3,25.5,58.3,58.3,28.2,0,0,0,0.0,0.008378809
2024-04-19,07:10,58.1,25.2,58.1,58.1,28.1,1.2,0.4,208.8,0.0,0.01291332
2024-04-19,07:15,57.8,25.8,57.8,57.8,29.1,1,0.4,233.1,0.0,0.01778709
2024-04-19,07:20,57.7,25.3,57.7,57.7,28.6,0.5,0.1,233.1,0.0,0.01946268
2024-04-19,07:25,57.8,26,57.8,57.8,29.4,2.7,1.7,283,0.0,0.02232354
2024-04-19,07:30,58.2,26.2,58.2,58.2,29.2,2.6,1.7,291.4,0.0,0.02419251
2024-04-19,07:35,58.4,27.5,58.4,58.4,30.5,1.7,0.9,242.4,0.0,0.03091633
2024-04-19,07:40,58.5,28.3,58.5,58.5,31.4,1.7,1.1,242.1,0.0,0.03385964
2024-04-19,07:45,58.7,29,58.7,58.7,32.1,1.4,1.1,248.6,0.0,0.03246474
2024-04-19,07:50,59.2,27.5,59.2,59.2,29.7,2.3,1.4,245.4,0.0,0.04799846
2024-04-19,07:55,59.8,29.5,59.8,59.8,31.5,1.8,1.4,250.9,0.0,0.05122399
2024-04-19,08:00,60.5,27.5,60.5,60.5,28.4,1.8,1.4,276.2,0.0,0.05788803
2024-04-19,08:05,61.4,25,61.4,61.4,24.8,1.9,1,289.5,0.0,0.0592198
2024-04-19,08:10,61.5,25.6,61.5,61.5,25.3,2.2,1.4,283.5,0.0,0.04403247
2024-04-19,08:15,62.5,26.9,62.5,62.5,25.7,1.5,0.2,272.3,0.0,0.08183464
2024-04-19,08:20,63.9,26.4,63.9,63.9,24.0,1.3,0.7,341.9,0.0,0.1096901
2024-04-19,08:25,65.3,27.7,65.3,65.3,24.1,1.9,1.2,299.4,0.0,0.1224701
2024-04-19,08:30,65.5,29,65.5,65.5,25.3,3.1,1.9,287.3,0.0,0.09178756
2024-04-19,08:35,66.1,30.8,66.1,66.1,26.6,2.7,1.7,253.5,0.0,0.08900441
2024-04-19,08:40,66.9,32.5,66.9,66.9,27.7,2.7,1.5,198,0.0,0.08049184
2024-04-19,08:45,67.6,32.7,67.6,67.6,27.3,2.1,1.1,184.9,0.0,0.06998456
2024-04-19,08:50,68.1,32.6,68.1,68.1,26.8,2.9,1.4,184.7,0.0,0.08207612
2024-04-19,08:55,69,32.6,69.0,69,26.0,2.3,1.2,215.2,0.0,0.1043556
2024-04-19,09:00,71.1,32.3,71.1,71.1,23.8,4.5,2.2,178.4,0.0,0.1640795
2024-04-19,09:05,72.7,30.5,72.7,72.7,21.0,6.1,3.3,186.7,0.0,0.1690418
2024-04-19,09:10,73.1,29,73.1,73.1,19.5,8.9,5.9,179.2,0.0,0.1433965
2024-04-19,09:15,73.1,29,73.1,73.1,19.5,7.9,4.4,181.2,0.0,0.1093714
2024-04-19,09:20,72.8,29.9,72.8,72.8,20.4,7.6,5.1,171.9,0.0,0.1216495
2024-04-19,09:25,72.3,30.1,72.3,72.3,21.0,14.6,6.7,188.7,0.0,0.151932
2024-04-19,09:30,72.2,30.2,72.2,72.2,21.2,8.9,6.1,186.9,0.0,0.138036
2024-04-19,09:35,72.4,29.5,72.4,72.4,20.4,13.6,6.6,180.7,0.0,0.1748233
2024-04-19,09:40,72.7,29.8,72.7,72.7,20.4,13.7,8.2,185.2,0.0,0.1973513
2024-04-19,09:45,72.4,29.4,72.4,72.4,20.3,11.5,7.6,187.5,0.0,0.1740746
2024-04-19,09:50,73.2,29.6,73.2,73.2,19.9,8.1,5.3,179.6,0.0,0.2051553
2024-04-19,09:55,72.9,29.9,72.9,72.9,20.4,12.8,7.7,191.8,0.0,0.2143817
2024-04-19,10:00,73.1,30.2,73.1,73.1,20.4,10.4,6.9,203.8,0.0,0.2206267
2024-04-19,10:05,73.3,28.8,73.3,73.3,19.2,12.4,7.7,181,0.0,0.2232931
2024-04-19,10:10,74.3,29.2,74.3,74.3,18.9,9,6.1,187,0.0,0.2328114
2024-04-19,10:15,74.7,30.1,74.7,74.7,19.3,9.2,6.2,159,0.0,0.2390488
2024-04-19,10:20,74.8,30,74.8,74.8,19.2,9.3,6,170.9,0.0,0.2451924
2024-04-19,10:25,74.5,29.3,74.5,74.5,18.8,10.3,6.4,156.4,0.0,0.2380862
2024-04-19,10:30,74.8,29.9,74.8,74.8,19.0,9.8,5.6,170.6,0.0,0.2497148
2024-04-19,10:35,74.9,29.8,74.9,74.9,18.9,10.5,7.1,158.9,0.0,0.2543046
2024-04-19,10:40,74.9,30.4,74.9,74.9,19.4,11.4,6.6,162.8,0.0,0.2582317
2024-04-19,10:45,74.7,31,74.7,74.7,20.0,10.7,7,194,0.0,0.2615085
2024-04-19,10:50,75.3,30.6,75.3,75.3,19.4,12.1,6.1,178.7,0.0,0.2661544
2024-04-19,10:55,75.8,30.3,75.8,75.8,18.8,10.3,6.5,164.2,0.0,0.270057
2024-04-19,11:00,75.1,29.6,75.1,75.1,18.7,13.4,8.6,147.9,0.0,0.2737491
2024-04-19,11:05,75.8,29.5,75.8,75.8,18.2,11.9,7.4,154.8,0.0,0.2772045
2024-04-19,11:10,75.8,30,75.8,75.8,18.5,11.7,6.7,183.5,0.0,0.2776335
2024-04-19,11:15,75.8,29.3,75.8,75.8,18.0,13.3,7.3,183.3,0.0,0.2608989
2024-04-19,11:20,76.1,28.7,76.1,76.1,17.4,12.7,7.2,175.9,0.0,0.2789296
2024-04-19,11:25,76,29.4,76.0,76,18.0,12,7.5,168.9,0.0,0.2845167
2024-04-19,11:30,77,28.2,77.0,77,16.5,10.5,6.8,163.5,0.0,0.3061325
2024-04-19,11:35,77.1,29.2,77.1,77.1,17.2,11.9,7.6,179.7,0.0,0.3088794
2024-04-19,11:40,76.8,29.2,76.8,76.8,17.4,12.6,8.2,159,0.0,0.2535895
2024-04-19,11:45,77.2,29.1,77.2,77.2,17.1,13.2,8.2,156,0.0,0.2976713
2024-04-19,11:50,77.4,29.7,77.4,77.4,17.4,9.7,7.2,160.1,0.0,0.2972344
2024-04-19,11:55,77.7,28.8,77.7,77.7,16.6,11.4,8,173,0.0,0.3114488
2024-04-19,12:00,77.9,28.8,77.9,77.9,16.5,12.6,7.7,156,0.0,0.3124728
2024-04-19,12:05,78.3,29.5,78.3,78.3,16.7,13.2,7.5,159.9,0.0,0.3112259
2024-04-19,12:10,78.6,30,78.6,78.6,16.9,12.8,6.7,167.1,0.0,0.3149292
2024-04-19,12:15,78.6,29.4,78.6,78.6,16.5,13,8.1,165.5,0.0,0.3159313
2024-04-19,12:20,79.1,30.4,79.1,79.1,16.9,11.1,7.4,150.7,0.0,0.3164043
2024-04-19,12:25,79.6,30.6,79.6,79.6,16.8,11.6,7.6,168.6,0.0,0.3177488
2024-04-19,12:30,79.6,29,79.6,79.6,15.7,12.2,7.9,154.9,0.0,0.3184153
2024-04-19,12:35,79.3,31.5,79.3,79.3,17.5,14.2,9.2,146,0.0,0.3201421
2024-04-19,12:40,80.3,29.6,80.3,80.3,15.7,10.3,6.7,162.1,0.0,0.3203361
2024-04-19,12:45,80.6,27.7,80.6,80.6,14.4,13,6.9,178.7,0.0,0.319858
2024-04-19,12:50,80.4,28.7,80.4,80.4,15.1,11.6,6.5,165.7,0.0,0.3207026
2024-04-19,12:55,80.5,29.5,80.5,80.5,15.6,13,7.5,138,0.0,0.323212
2024-04-19,13:00,80.7,28.2,80.7,80.7,14.7,9.8,7.2,171.2,0.0,0.3122869
2024-04-19,13:05,80.8,28.8,80.8,80.8,15.0,9.7,7,152.6,0.0,0.3090453
2024-04-19,13:10,81,28.7,81.0,81,14.8,11,8.2,138.4,0.0,0.2981398